Temperature
18 17 17 17 17 17 17 17 18 18 18 17 17 17 17 17 16 17 17 17 17 17 17 17 17 17 17 17 17 17 17 17 17 17 17 17 18 18 17 17 17 17 18
18 18 18 17 18 18 17 17 18 17 17 17 17 16 16 16 16 16 16 16 16 17 17 17 17 17 17 17 17 17 17 17 17 17 17 17 17 17 17 17 17 17 17
18 18 18 17 17 17 17 17 17 17 17 17 16 16 16 16 16 16 16 16 16 16 17 17 17 17 17 17 17 17 17 17 17 17 17 17 17 17 17 17 17 17 17
18 18 18 18 17 17 17 17 17 17 17 16 16 16 16 16 16 16 16 16 16 16 17 17 17 17 17 17 17 17 17 17 17 17 17 17 17 17 17 17 17 17 17
18 18 18 18 18 17 17 17 17 17 17 17 16 16 16 16 16 16 16 16 16 17 17 17 17 17 17 17 16 16 16 16 17 17 17 17 17 17 17 17 17 17 17
18 18 18 18 18 17 17 17 17 17 17 17 16 16 16 16 16 16 16 16 16 17 17 17 17 17 17 17 16 16 16 16 16 17 17 17 17 17 17 17 17 17 17
18 18 17 17 17 17 17 17 17 17 17 16 16 16 16 16 16 15 16 16 16 16 16 16 16 17 17 17 17 17 16 16 16 16 16 16 17 17 17 17 17 17 16
17 17 17 17 17 17 17 17 17 16 16 16 16 16 16 16 16 15 15 16 16 16 15 16 16 16 16 17 17 17 16 16 16 16 16 16 16 17 17 17 17 16 16
17 17 17 17 17 17 17 16 17 16 16 16 16 16 16 16 15 16 16 16 16 15 15 15 15 15 16 17 17 17 16 16 16 16 16 16 16 16 16 16 16 16 16
17 17 17 17 16 16 16 16 16 16 16 16 16 16 17 17 16 16 15 15 16 15 15 15 15 15 15 16 16 16 16 17 17 17 16 16 16 16 16 16 16 15 15
17 17 17 16 16 16 16 16 16 16 16 16 15 16 16 17 17 17 16 16 16 15 15 15 15 15 15 16 16 16 16 16 17 16 16 16 16 15 15 15 15 15 15
16 16 16 16 16 16 16 16 16 15 16 15 15 15 16 17 17 17 17 17 16 16 15 15 15 15 15 16 16 16 16 16 16 16 16 16 16 15 15 15 15 15 15
16 15 15 15 15 15 15 15 15 15 15 15 15 15 15 16 17 17 18 17 17 16 16 16 16 16 16 16 16 16 16 16 16 16 15 15 15 15 15 15 15 14 15
15 15 15 15 15 15 15 15 15 15 15 15 15 16 15 15 16 17 17 17 17 16 16 16 16 16 16 16 16 16 16 16 16 15 15 15 15 15 15 14 14 14 14
15 15 14 14 15 15 15 15 15 15 15 15 15 15 16 15 16 16 17 17 17 17 16 16 15 15 16 16 16 15 16 16 15 15 15 15 14 15 15 15 14 14 14
15 15 14 14 14 14 15 14 14 14 14 14 14 15 15 16 15 16 16 17 17 17 17 16 16 16 16 16 15 15 16 15 15 15 15 15 14 14 15 15 15 14 14
15 14 14 14 14 14 14 14 14 14 14 14 13 14 14 15 15 15 16 16 17 17 16 16 16 16 15 15 15 15 15 15 15 15 15 15 14 14 14 15 15 15 15
15 15 14 14 14 14 14 14 14 14 13 13 13 13 13 14 15 14 15 15 16 16 16 16 16 15 15 15 15 15 15 15 15 15 15 15 15 14 14 15 15 15 15
15 15 14 14 14 14 14 14 14 14 13 13 13 12 13 13 14 14 14 15 15 15 15 15 15 15 15 14 15 15 14 14 14 15 15 15 15 14 15 15 15 15 15
15 15 15 15 14 14 14 14 14 14 13 13 12 12 12 13 13 13 14 14 15 15 14 14 15 15 15 14 14 14 14 14 14 14 15 15 15 14 15 15 15 15 15
15 15 15 15 15 15 14 14 14 14 13 13 13 13 13 13 13 13 14 14 14 14 14 14 14 15 15 14 14 14 14 14 13 14 14 15 15 15 15 15 14 14 14
15 15 15 15 15 15 15 14 14 14 14 14 14 14 14 13 13 13 14 14 14 14 14 14 14 14 15 15 14 14 13 12 12 13 14 14 15 15 15 15 15 14 13
16 15 15 15 15 14 14 15 15 14 14 14 14 14 14 14 14 14 14 14 14 14 14 14 15 15 15 15 15 14 13 13 13 13 13 13 14 14 14 15 15 14 13
15 15 15 15 14 14 14 14 15 14 14 14 14 14 14 14 14 14 14 13 14 14 14 14 14 14 14 14 14 14 14 13 12 12 12 13 13 13 13 14 14 14 13
15 14 14 14 14 14 14 14 14 14 14 14 14 14 14 14 14 14 14 13 13 13 13 14 14 14 14 14 14 14 13 13 13 12 12 12 13 13 13 14 14 14 13
14 14 14 14 14 14 14 14 14 14 14 14 14 14 14 14 14 14 14 13 13 13 13 14 14 14 14 14 14 13 13 13 13 12 13 12 12 12 13 13 14 14 14
Wind_Speed
6 5 4 6 7 8 5 2 2 4 5 7 8 8 7 10 12 11 13 17 16 14 12 12 13 13 12 12 11 11 11 10 8 7 5 4 4 5 6 6 5 6 7
4 6 5 4 2 4 6 3 5 5 5 4 5 4 5 8 11 11 12 16 19 18 16 15 15 14 14 14 14 13 13 11 9 8 7 6 4 4 5 5 5 6 7
5 5 5 5 3 4 5 4 5 3 7 5 4 5 4 5 6 10 10 11 14 18 19 18 17 16 15 14 13 13 11 10 8 7 6 6 4 3 3 4 5 5 6
7 4 5 6 6 6 3 5 4 2 5 5 5 3 5 1 4 8 10 9 9 12 14 17 19 18 17 15 13 12 11 10 8 6 5 4 3 3 3 3 4 4 5
8 4 5 4 6 4 4 6 4 3 4 4 5 3 4 3 2 4 6 9 9 12 10 13 16 17 17 18 16 14 12 10 8 7 5 4 3 3 3 3 3 4 5
8 5 4 5 4 5 4 5 6 3 4 4 5 5 3 2 4 5 4 4 8 10 9 10 12 14 15 16 15 15 13 10 9 9 7 5 4 2 2 2 3 4 5
4 4 5 6 5 5 5 6 4 4 3 4 5 4 2 2 5 3 2 3 4 7 7 7 10 12 12 14 14 15 16 15 14 14 13 10 6 4 3 3 3 3 3
6 3 6 4 4 5 6 6 5 3 1 2 5 4 2 2 1 3 2 2 4 1 4 8 8 10 13 12 13 14 14 15 15 16 17 16 11 7 4 3 3 2 2
6 4 5 5 3 4 6 6 7 7 3 2 3 4 4 4 3 3 5 3 4 3 1 3 7 11 13 12 11 12 13 13 14 15 16 17 15 11 8 7 6 5 4
5 4 4 5 5 3 5 7 7 6 7 4 4 4 5 5 4 3 3 4 6 5 4 1 3 8 14 13 11 10 11 13 13 14 14 15 16 16 12 11 12 12 12
6 5 5 7 7 5 5 6 5 7 6 7 7 7 6 3 4 4 4 4 4 4 5 5 3 4 9 13 12 9 9 11 12 12 13 13 14 16 16 15 15 15 14
4 6 7 8 7 6 6 6 6 7 8 9 9 10 8 4 3 3 4 6 5 5 5 4 4 4 6 10 11 9 8 8 9 10 11 11 12 12 13 13 13 13 13
3 4 5 6 6 7 7 6 5 6 8 10 12 10 9 7 5 4 4 5 5 4 4 4 5 7 8 10 12 11 8 8 8 8 9 10 10 10 10 10 10 10 10
2 2 2 3 5 6 7 7 6 7 7 9 11 11 8 7 5 5 4 4 4 4 4 5 5 6 8 9 13 12 11 10 9 8 8 8 8 8 8 7 8 8 7
2 1 3 3 3 3 4 6 6 7 7 8 8 8 7 5 6 4 2 3 5 5 4 4 4 6 9 10 13 11 12 11 10 9 8 7 7 6 5 5 6 6 6
5 5 5 4 5 4 4 5 5 5 6 6 5 5 4 3 3 7 3 1 2 5 5 6 4 6 6 9 11 8 14 13 11 9 8 7 6 5 4 4 4 5 6
5 5 3 4 5 5 5 5 5 6 7 6 5 4 4 3 2 6 6 3 2 2 4 4 3 5 7 7 6 6 13 13 12 11 9 7 5 3 2 3 4 6 7
6 6 6 5 5 6 5 5 5 6 7 7 6 6 5 4 3 4 6 4 2 3 2 4 3 4 7 8 8 6 8 11 13 14 12 10 7 4 1 1 3 5 5
6 6 6 5 6 7 7 6 6 5 5 6 6 6 5 6 4 0 2 2 2 4 5 3 4 4 4 6 9 7 5 4 9 14 13 11 9 7 5 3 1 2 2
7 7 7 6 6 7 8 8 8 7 7 6 6 6 6 6 6 4 2 0 1 4 7 6 4 4 4 5 7 6 5 5 4 9 11 12 13 11 8 6 4 3 2
7 7 6 6 5 5 7 9 9 9 8 7 7 7 8 9 10 7 5 3 1 3 5 7 6 4 5 5 7 6 6 5 6 5 5 6 8 8 10 10 9 6 5
6 6 5 5 6 6 9 11 8 8 8 9 9 9 9 11 14 14 13 9 7 7 7 7 6 6 9 8 7 6 7 6 5 6 6 7 5 7 9 13 15 13 9
7 6 6 6 6 6 11 12 11 6 8 9 10 10 10 12 14 9 12 15 15 16 15 9 7 8 8 9 10 9 8 8 6 6 6 6 6 7 7 13 21 19 14
6 7 7 7 6 6 12 12 11 6 6 6 6 6 8 10 12 12 9 9 10 10 11 9 7 6 6 7 11 11 9 7 5 4 6 5 5 5 4 10 19 19 16
5 5 5 6 6 7 12 12 10 5 6 8 7 7 7 6 13 17 10 7 5 3 2 4 5 4 3 3 5 7 8 6 5 4 5 5 5 4 4 5 14 18 17
5 4 3 4 5 6 11 14 12 5 7 7 6 6 7 3 5 12 8 5 2 1 3 4 4 2 1 1 3 5 7 7 5 4 6 5 4 5 4 4 5 12 13
Wind_Direction
155 157 155 169 197 171 175 202 161 79 57 49 58 71 89 95 101 93 78 77 79 80 84 89 90 86 81 79 82 89 92 96 95 95 97 86 71 65 64 57 45 38 18
158 161 158 169 172 141 165 166 97 103 87 67 63 55 90 126 130 124 101 81 76 76 82 88 89 86 83 83 83 84 84 83 81 79 82 81 70 59 63 63 61 57 37
181 160 159 157 153 199 172 136 113 122 112 121 103 79 53 44 100 107 102 103 86 73 75 81 84 83 79 79 83 83 81 82 80 81 85 82 70 51 53 64 72 69 48
205 163 155 160 178 184 139 111 121 120 134 150 132 129 116 119 80 121 118 99 102 93 79 79 79 78 74 71 78 80 77 78 75 74 73 73 62 40 38 64 79 66 45
203 171 156 170 172 151 142 149 151 180 156 125 108 84 83 70 83 78 103 113 111 114 111 93 85 78 73 67 67 68 68 69 72 72 65 56 43 34 41 64 61 43 33
204 175 152 183 172 155 152 157 162 181 134 143 138 110 89 99 74 65 57 102 114 116 135 138 111 89 77 70 65 59 54 61 72 74 69 60 51 50 45 31 12 15 20
230 162 168 194 175 166 169 165 155 154 144 153 113 121 180 181 104 140 145 103 101 140 153 130 133 127 99 76 66 60 53 58 67 66 61 54 53 63 66 39 5 351 4
233 189 184 203 183 170 177 145 128 139 195 177 144 151 174 56 294 166 112 142 148 133 128 136 126 120 120 101 75 65 56 54 58 56 53 47 47 59 65 50 25 1 340
237 188 196 199 197 176 173 157 149 159 187 271 182 155 169 187 190 186 189 201 129 140 141 81 127 114 113 109 85 66 61 54 52 51 50 48 50 53 56 58 54 47 40
222 195 193 217 210 191 184 182 166 160 159 208 273 218 189 165 163 168 202 198 169 181 138 82 72 112 113 110 100 78 67 59 56 53 51 50 48 50 57 63 62 61 60
207 196 206 212 218 203 198 187 184 174 170 178 225 258 249 210 190 147 179 193 174 179 166 169 128 99 118 129 118 97 81 72 64 58 53 50 49 51 57 63 61 58 57
218 219 208 214 213 203 205 197 189 188 187 188 206 242 250 220 219 184 168 179 180 192 167 149 146 132 118 120 123 125 107 91 81 74 65 58 52 49 50 54 55 55 55
195 233 231 229 230 217 211 212 205 201 198 202 204 220 249 232 203 221 165 173 179 175 155 160 171 154 159 147 144 148 137 122 110 96 83 71 61 52 49 49 50 50 45
159 204 224 216 228 227 215 205 214 217 218 216 207 204 230 264 239 214 178 163 163 161 159 172 170 161 176 167 160 165 155 147 141 125 106 89 74 60 52 49 48 43 35
150 204 229 215 197 191 198 194 210 221 225 226 216 205 203 229 286 272 202 160 152 163 188 172 163 173 170 153 166 188 169 162 156 144 124 105 88 70 59 51 44 34 21
166 181 229 200 163 160 175 186 204 221 226 231 223 213 206 178 257 285 277 232 158 161 185 191 178 166 159 162 181 216 155 161 162 161 147 130 109 80 61 53 41 23 6
167 178 204 232 166 164 180 193 206 211 216 215 208 193 174 141 174 274 276 260 251 207 190 194 162 158 152 164 164 178 156 167 174 175 170 161 144 108 52 31 21 9 3
181 186 204 201 164 162 174 184 194 195 194 189 181 172 157 136 101 284 274 267 272 288 241 183 159 169 172 172 165 190 177 196 177 185 184 182 177 174 191 357 3 1 11
186 192 213 194 166 164 171 175 175 175 172 169 165 161 148 125 115 202 299 307 341 312 298 239 183 180 186 175 165 184 184 216 175 179 188 194 194 195 206 225 294 343 41
198 201 209 196 176 169 172 175 178 182 184 185 184 183 176 160 159 175 201 89 13 311 285 262 208 185 199 185 168 175 194 206 200 176 189 192 199 201 207 217 233 245 183
205 207 204 186 182 184 191 184 182 184 187 195 202 207 206 202 197 199 200 186 191 275 277 259 225 191 196 189 191 180 192 189 207 190 167 178 180 194 206 215 221 219 188
209 207 196 187 189 208 198 185 179 185 192 203 214 219 219 220 221 221 223 221 219 235 247 248 229 205 206 201 189 186 185 182 207 197 172 189 177 195 200 202 208 200 186
202 212 205 203 207 200 177 177 186 210 217 215 214 212 215 216 216 223 230 232 236 238 234 236 239 228 210 198 189 193 194 198 207 190 172 195 185 199 199 199 188 186 186
217 211 215 217 218 196 184 186 187 219 256 253 236 216 206 202 202 207 215 223 229 235 232 227 235 246 237 206 192 198 197 198 213 188 154 183 182 193 172 159 176 183 187
281 254 231 224 222 207 192 193 187 214 247 257 250 235 228 220 200 196 204 222 226 227 180 147 121 94 43 303 213 181 174 173 197 198 176 179 178 174 177 167 186 191 192
319 303 266 236 228 221 200 198 198 219 243 254 254 239 216 182 152 179 194 205 208 206 136 125 117 127 171 215 191 178 177 183 183 183 188 184 172 151 184 191 168 187 198
Height
1530 1531 1533 1533 1535 1536 1537 1539 1541 1542 1542 1542 1542 1542 1542 1541 1541 1540 1540 1540 1540 1540 1540 1540 1540 1541 1542 1543 1544 1544 1545 1546 1546 1547 1548 1548 1549 1548 1548 1547 1547 1547 1548
1530 1531 1532 1533 1535 1537 1538 1539 1540 1541 1542 1542 1543 1544 1544 1543 1542 1542 1541 1541 1541 1541 1540 1541 1541 1542 1542 1543 1544 1545 1545 1545 1546 1547 1547 1548 1548 1548 1547 1547 1547 1547 1547
1529 1530 1532 1532 1534 1536 1538 1539 1540 1541 1541 1542 1543 1544 1545 1545 1545 1544 1544 1543 1543 1543 1542 1542 1542 1543 1543 1544 1544 1545 1545 1545 1545 1546 1546 1547 1547 1547 1546 1546 1547 1547 1546
1527 1529 1530 1531 1533 1535 1537 1537 1539 1541 1542 1543 1544 1545 1545 1545 1546 1546 1545 1545 1545 1545 1545 1544 1544 1544 1544 1544 1545 1545 1545 1545 1545 1546 1545 1545 1546 1546 1545 1545 1546 1546 1546
1525 1527 1528 1531 1532 1534 1535 1536 1538 1540 1542 1543 1544 1545 1545 1545 1546 1547 1547 1547 1547 1546 1546 1546 1545 1545 1545 1545 1545 1545 1545 1545 1545 1545 1545 1545 1545 1545 1544 1544 1545 1546 1545
1523 1525 1526 1528 1531 1532 1533 1535 1537 1539 1541 1543 1544 1545 1546 1545 1546 1546 1547 1548 1547 1547 1547 1546 1546 1546 1546 1546 1547 1547 1547 1546 1546 1545 1545 1544 1544 1543 1543 1543 1544 1544 1544
1520 1521 1523 1525 1528 1529 1531 1533 1535 1537 1539 1542 1543 1545 1546 1546 1546 1546 1548 1548 1548 1548 1547 1547 1546 1546 1547 1547 1547 1547 1547 1547 1546 1546 1545 1544 1543 1542 1542 1542 1542 1543 1543
1517 1518 1520 1523 1525 1527 1529 1530 1531 1534 1537 1540 1542 1544 1546 1547 1546 1547 1548 1548 1548 1548 1549 1548 1547 1547 1547 1548 1548 1548 1548 1548 1547 1546 1545 1544 1543 1542 1541 1541 1541 1542 1542
1513 1515 1516 1519 1521 1523 1525 1526 1528 1530 1534 1537 1540 1542 1543 1544 1545 1546 1546 1548 1548 1548 1549 1550 1549 1548 1547 1548 1548 1548 1548 1548 1547 1546 1545 1544 1544 1543 1541 1541 1541 1541 1541
1509 1510 1512 1514 1516 1518 1521 1523 1525 1528 1530 1533 1536 1539 1540 1541 1542 1544 1546 1546 1547 1548 1548 1549 1549 1548 1547 1548 1548 1548 1548 1547 1546 1546 1545 1545 1544 1543 1542 1541 1541 1541 1540
1505 1506 1507 1509 1512 1514 1516 1519 1521 1524 1526 1529 1532 1535 1537 1538 1539 1541 1542 1544 1545 1546 1547 1547 1548 1548 1546 1546 1547 1547 1547 1547 1546 1546 1546 1545 1544 1543 1542 1541 1540 1540 1540
1502 1503 1503 1505 1506 1509 1511 1514 1516 1519 1521 1524 1527 1530 1533 1534 1536 1538 1539 1540 1542 1544 1545 1546 1546 1546 1546 1545 1546 1546 1546 1546 1546 1546 1545 1544 1543 1542 1542 1541 1540 1540 1540
1499 1500 1501 1501 1503 1504 1506 1509 1511 1514 1516 1519 1522 1524 1527 1530 1532 1534 1537 1537 1539 1541 1542 1544 1544 1544 1544 1544 1545 1545 1545 1545 1545 1544 1544 1543 1542 1541 1540 1540 1539 1539 1539
1497 1497 1497 1498 1499 1500 1501 1503 1506 1508 1511 1514 1517 1518 1519 1523 1527 1530 1533 1535 1537 1539 1540 1541 1541 1542 1543 1542 1543 1543 1543 1543 1543 1543 1542 1542 1541 1540 1539 1538 1538 1537 1537
1494 1494 1494 1495 1495 1496 1497 1498 1499 1502 1505 1508 1511 1513 1515 1517 1520 1525 1529 1531 1534 1535 1537 1539 1539 1539 1540 1540 1541 1541 1541 1542 1542 1541 1541 1540 1539 1539 1538 1537 1537 1536 1536
1492 1492 1493 1493 1493 1493 1493 1493 1494 1496 1498 1501 1504 1508 1510 1513 1515 1519 1524 1526 1529 1531 1532 1534 1535 1536 1537 1538 1539 1539 1539 1540 1540 1540 1539 1538 1538 1537 1536 1536 1536 1535 1535
1491 1491 1492 1492 1492 1491 1491 1491 1491 1492 1494 1495 1497 1501 1504 1507 1510 1514 1519 1522 1524 1527 1528 1530 1531 1532 1534 1535 1536 1536 1537 1538 1538 1537 1537 1537 1536 1535 1534 1534 1534 1534 1534
1489 1490 1491 1491 1490 1489 1489 1488 1489 1489 1490 1491 1493 1495 1497 1501 1505 1509 1514 1517 1519 1522 1525 1526 1527 1529 1530 1531 1533 1533 1534 1534 1534 1535 1534 1534 1533 1532 1532 1532 1532 1532 1533
1487 1488 1489 1489 1489 1488 1488 1487 1487 1487 1487 1488 1490 1491 1493 1495 1500 1504 1508 1512 1514 1517 1520 1523 1524 1525 1526 1527 1528 1529 1530 1530 1530 1531 1532 1531 1531 1530 1530 1530 1530 1531 1531
1485 1486 1487 1488 1487 1487 1486 1487 1487 1487 1487 1488 1489 1490 1491 1493 1497 1501 1505 1508 1510 1512 1515 1518 1520 1521 1523 1524 1524 1524 1525 1526 1527 1527 1528 1529 1529 1529 1528 1528 1528 1528 1528
1482 1483 1485 1486 1486 1486 1486 1486 1486 1487 1487 1488 1488 1488 1489 1491 1494 1498 1501 1504 1506 1509 1512 1514 1516 1516 1517 1519 1519 1519 1521 1522 1523 1524 1524 1525 1526 1526 1526 1525 1525 1526 1526
1479 1481 1482 1483 1483 1484 1484 1485 1485 1486 1487 1487 1488 1488 1488 1489 1491 1494 1497 1500 1502 1505 1508 1510 1511 1511 1511 1513 1515 1516 1517 1518 1519 1520 1520 1521 1522 1522 1522 1522 1523 1523 1523
1476 1477 1478 1479 1480 1481 1482 1483 1484 1484 1485 1486 1487 1487 1487 1488 1490 1491 1493 1495 1498 1501 1504 1505 1506 1506 1507 1507 1509 1511 1512 1513 1514 1516 1517 1517 1518 1518 1518 1518 1519 1520 1520
1472 1473 1474 1476 1477 1478 1479 1481 1482 1483 1484 1485 1485 1486 1486 1486 1487 1489 1490 1492 1494 1497 1498 1499 1500 1501 1502 1503 1504 1505 1507 1509 1512 1513 1514 1515 1515 1515 1515 1515 1516 1516 1517
1469 1470 1471 1472 1474 1475 1476 1478 1479 1480 1480 1481 1482 1483 1483 1484 1484 1486 1488 1489 1491 1493 1494 1495 1495 1496 1497 1498 1500 1501 1502 1504 1505 1507 1509 1511 1511 1511 1512 1512 1513 1513 1513
1464 1465 1466 1468 1470 1471 1473 1474 1476 1476 1477 1477 1479 1480 1480 1481 1482 1483 1485 1487 1489 1489 1490 1491 1492 1492 1492 1492 1494 1496 1497 1499 1500 1502 1504 1507 1508 1508 1508 1508 1509 1510 1509